Language: 


Des rapports , des résumés tant et plus, au choix de chacun....


Données Historiques de Météogheer
Journalier Rapport pour Janvier 4, 2018 Unitée:  Impériale    Métrique   Les deux
Suivant Jour »
Journalier Hebdomadaire Mensuel Annuel Sur mesure
  Max: Min: Moyenne:
Température: 55.6 °F 32 °F 49.1 °F
Point de rosée: 55.4 °F 41 °F 46.2 °F
Humidité: 98% 0% 88%
Vent: 37.4mph 0mph 12.7mph
Rafales: 44.1mph - -
Vent- - WSW
Pression: 29.6 in 0 in -
Pluie: 0.52 in    
Historical Graphs
 
 
Données tabulaires pour Janvier 4, 2018
Heure Température Point de rosée Pression Vent Vent Rafales Humidité Pluie Taux (Horaire) Conditions
00:00 47.1 °F 42.8 °F 29.6 in West 10.1 mph 14.1 mph 82% 0 in
00:05 47.1 °F 42.8 °F 29.6 in West 10.3 mph 14.8 mph 82% 0 in
00:08 47.1 °F 42.8 °F 29.6 in West 9.8 mph 15.2 mph 82% 0 in
00:11 47.1 °F 42.8 °F 29.6 in WSW 14.5 mph 15.2 mph 82% 0 in
00:13 47.1 °F 42.8 °F 29.6 in WSW 17.2 mph 17.2 mph 82% 0 in
00:18 46.9 °F 42.8 °F 29.6 in West 9.2 mph 17.2 mph 83% 0 in
00:21 46.9 °F 42.8 °F 29.6 in West 12.8 mph 17.2 mph 83% 0 in
00:24 47.1 °F 42.8 °F 29.6 in SW 13.2 mph 15.9 mph 83% 0 in
00:26 47.1 °F 42.8 °F 29.6 in WSW 14.8 mph 16.8 mph 83% 0 in
00:32 46.9 °F 42.8 °F 29.6 in WSW 9.6 mph 16.8 mph 83% 0 in
00:33 47.1 °F 42.8 °F 29.6 in WSW 14.5 mph 17.2 mph 83% 0 in
00:34 47.1 °F 42.8 °F 29.6 in West 16.1 mph 17.2 mph 83% 0 in
00:38 47.1 °F 42.8 °F 29.6 in WSW 8.7 mph 17.2 mph 84% 0 in
00:39 47.1 °F 42.8 °F 29.6 in WSW 8.1 mph 17.2 mph 84% 0 in
00:43 46.9 °F 42.8 °F 29.6 in West 9.8 mph 16.1 mph 84% 0 in
00:49 46.9 °F 42.8 °F 29.6 in West 13.9 mph 15.7 mph 84% 0 in
00:54 46.9 °F 42.8 °F 29.6 in WSW 7.4 mph 14.8 mph 84% 0 in
00:57 46.9 °F 42.8 °F 29.6 in West 10.7 mph 13.9 mph 84% 0 in
01:00 46.9 °F 42.8 °F 29.6 in WSW 8.1 mph 14.8 mph 84% 0 in
01:03 46.9 °F 42.8 °F 29.6 in WSW 8.5 mph 14.8 mph 84% 0 in
01:08 46.9 °F 42.8 °F 29.6 in WSW 10.5 mph 16.1 mph 84% 0 in
01:10 46.9 °F 42.8 °F 29.6 in WSW 10.7 mph 16.1 mph 84% 0 in
01:16 46.8 °F 42.8 °F 29.6 in WSW 8.7 mph 16.1 mph 84% 0 in
01:21 46.8 °F 42.8 °F 29.6 in WSW 10.1 mph 15.9 mph 85% 0 in
01:26 46.6 °F 42.8 °F 29.6 in WSW 9.8 mph 15.9 mph 85% 0 in
01:28 46.6 °F 42.8 °F 29.6 in West 8.5 mph 10.7 mph 85% 0 in
01:30 46.4 °F 42.8 °F 29.6 in WSW 8.5 mph 10.7 mph 85% 0 in
01:33 46.4 °F 42.8 °F 29.6 in WSW 7.4 mph 10.5 mph 85% 0 in
01:36 46.2 °F 42.8 °F 29.6 in WSW 8.9 mph 11 mph 85% 0 in
01:41 46.2 °F 42.8 °F 29.6 in WSW 7.8 mph 11 mph 86% 0 in
01:44 46.2 °F 42.8 °F 29.6 in WSW 9.8 mph 11 mph 86% 0 in
01:49 46.2 °F 42.8 °F 29.6 in WSW 8.5 mph 11 mph 87% 0 in
01:54 46.2 °F 42.8 °F 29.6 in WSW 9.6 mph 12.5 mph 87% 0 in
01:56 46.2 °F 42.8 °F 29.6 in WSW 7.8 mph 12.5 mph 87% 0 in
02:01 46.2 °F 42.8 °F 29.6 in WSW 8.5 mph 12.5 mph 88% 0 in
02:02 46.2 °F 42.8 °F 29.6 in WSW 8.1 mph 12.5 mph 88% 0 in
02:07 46.2 °F 42.8 °F 29.6 in WSW 9.8 mph 12.8 mph 89% 0 in
02:12 46.2 °F 42.8 °F 29.6 in WSW 7.6 mph 12.8 mph 89% 0 in
02:13 46.2 °F 42.8 °F 29.6 in WSW 7.8 mph 12.8 mph 89% 0 in
02:18 46.2 °F 42.8 °F 29.6 in WSW 8.1 mph 13 mph 89% 0 in
02:20 46.2 °F 42.8 °F 29.6 in WSW 7.8 mph 13 mph 90% 0 in
02:25 46.2 °F 42.8 °F 29.6 in WSW 8.5 mph 13 mph 90% 0 in
02:28 46.4 °F 44.6 °F 29.6 in West 10.7 mph 13.9 mph 90% 0 in
02:33 46.4 °F 44.6 °F 29.6 in WSW 8.1 mph 13.9 mph 90% 0 in
02:34 46.4 °F 44.6 °F 29.6 in WSW 8.7 mph 13.9 mph 90% 0 in
02:40 46.4 °F 44.6 °F 29.6 in WSW 6.3 mph 12.1 mph 90% 0 in
02:41 46.4 °F 44.6 °F 29.6 in WSW 10.3 mph 10.5 mph 90% 0 in
02:46 46.2 °F 42.8 °F 29.6 in WSW 7.6 mph 10.5 mph 90% 0 in
02:47 46.2 °F 42.8 °F 29.6 in WSW 7.2 mph 10.5 mph 90% 0 in
02:52 46.2 °F 42.8 °F 29.6 in WSW 7.6 mph 10.1 mph 90% 0 in
02:55 46.2 °F 42.8 °F 29.6 in WSW 8.1 mph 9.8 mph 90% 0 in
02:57 46.2 °F 42.8 °F 29.6 in WSW 8.7 mph 10.1 mph 90% 0 in
03:02 46.2 °F 44.6 °F 29.6 in WSW 8.7 mph 10.1 mph 91% 0 in
03:03 46.2 °F 44.6 °F 29.6 in WSW 10.7 mph 10.7 mph 91% 0 in
03:07 46.4 °F 44.6 °F 29.6 in WSW 8.1 mph 10.7 mph 91% 0 in
03:12 46.4 °F 44.6 °F 29.5 in SW 7.4 mph 12.1 mph 92% 0 in
03:14 46.4 °F 44.6 °F 29.5 in SSW 7.6 mph 12.1 mph 92% 0 in
03:19 46.6 °F 44.6 °F 29.5 in WSW 6.7 mph 9.6 mph 92% 0 in
03:20 46.6 °F 44.6 °F 29.5 in WSW 7.6 mph 9.6 mph 92% 0 in
03:22 46.6 °F 44.6 °F 29.5 in WSW 6.5 mph 9.8 mph 92% 0 in
03:26 46.8 °F 44.6 °F 29.5 in WSW 8.1 mph 9.8 mph 92% 0 in
03:28 46.8 °F 44.6 °F 29.5 in WSW 7.8 mph 9.8 mph 93% 0 in
03:33 46.8 °F 44.6 °F 29.5 in WSW 6.9 mph 10.1 mph 93% 0 in
03:38 46.8 °F 44.6 °F 29.5 in WSW 5.4 mph 10.1 mph 93% 0 in
03:41 46.8 °F 44.6 °F 29.5 in WSW 8.7 mph 8.7 mph 93% 0 in
03:46 46.9 °F 46.4 °F 29.5 in WSW 6.3 mph 8.7 mph 93% 0 in
03:52 46.9 °F 46.4 °F 29.5 in WSW 8.7 mph 8.7 mph 93% 0 in
03:53 46.9 °F 46.4 °F 29.5 in WSW 5.8 mph 8.7 mph 94% 0 in
03:58 47.1 °F 46.4 °F 29.5 in WSW 8.7 mph 8.7 mph 94% 0 in
04:00 47.1 °F 46.4 °F 29.5 in WSW 6.3 mph 8.7 mph 94% 0 in
04:05 47.3 °F 46.4 °F 29.5 in WSW 6.5 mph 8.7 mph 94% 0 in
04:08 47.3 °F 46.4 °F 29.5 in WSW 7.2 mph 8.7 mph 94% 0 in
04:12 47.3 °F 46.4 °F 29.5 in WSW 7.6 mph 8.5 mph 94% 0 in
04:13 47.3 °F 46.4 °F 29.5 in WSW 7.8 mph 10.1 mph 95% 0 in
04:18 47.3 °F 46.4 °F 29.5 in WSW 7.8 mph 12.8 mph 95% 0 in
04:22 47.5 °F 46.4 °F 29.5 in WSW 8.5 mph 13 mph 95% 0 in
04:24 47.5 °F 46.4 °F 29.5 in WSW 7.8 mph 13 mph 95% 0 in
04:29 47.5 °F 46.4 °F 29.5 in WSW 7.2 mph 13 mph 95% 0 in
04:34 47.7 °F 46.4 °F 29.5 in WSW 6.3 mph 13 mph 95% 0 in
04:39 47.7 °F 46.4 °F 29.5 in WSW 6.3 mph 10.5 mph 95% 0 in
04:42 47.7 °F 46.4 °F 29.5 in WSW 4.9 mph 10.5 mph 95% 0 in
04:48 47.7 °F 46.4 °F 29.5 in WSW 6.5 mph 10.1 mph 95% 0 in
04:53 47.7 °F 46.4 °F 29.5 in WSW 7.8 mph 8.7 mph 94% 0 in
04:54 47.7 °F 46.4 °F 29.5 in WSW 7.4 mph 10.7 mph 94% 0 in
04:55 47.7 °F 46.4 °F 29.5 in WSW 6.5 mph 10.7 mph 94% 0 in
05:00 47.7 °F 46.4 °F 29.5 in SW 6.5 mph 10.7 mph 94% 0 in
05:03 47.8 °F 46.4 °F 29.5 in WSW 7.6 mph 10.7 mph 94% 0 in
05:08 47.8 °F 46.4 °F 29.5 in WSW 6 mph 10.1 mph 94% 0 in
05:11 47.8 °F 46.4 °F 29.5 in SW 7.6 mph 9.8 mph 94% 0 in
05:14 47.8 °F 46.4 °F 29.5 in SW 5.6 mph 8.7 mph 94% 0 in
05:15 47.8 °F 46.4 °F 29.5 in SW 5.6 mph 8.7 mph 94% 0 in
05:16 47.8 °F 46.4 °F 29.5 in SW 6.5 mph 8.7 mph 94% 0 in
05:17 47.8 °F 46.4 °F 29.5 in WSW 6.3 mph 8.7 mph 94% 0 in
05:18 47.8 °F 46.4 °F 29.5 in SSW 3.6 mph 8.7 mph 94% 0 in
05:19 47.8 °F 46.4 °F 29.5 in WSW 5.4 mph 8.7 mph 94% 0 in
05:20 47.8 °F 46.4 °F 29.5 in SW 6.3 mph 8.1 mph 94% 0 in
05:22 47.7 °F 46.4 °F 29.5 in WSW 4.9 mph 7.8 mph 95% 0 in
05:23 47.7 °F 46.4 °F 29.5 in WSW 6 mph 7.8 mph 95% 0 in
05:26 47.7 °F 46.4 °F 29.5 in WSW 6.3 mph 7.8 mph 95% 0 in
05:31 47.7 °F 46.4 °F 29.5 in SW 4.9 mph 7.8 mph 95% 0 in
05:36 47.5 °F 46.4 °F 29.5 in SW 5.4 mph 7.4 mph 95% 0 in
05:38 47.5 °F 46.4 °F 29.5 in SW 4 mph 6.9 mph 95% 0 in
05:39 47.5 °F 46.4 °F 29.5 in WSW 6 mph 6.9 mph 95% 0 in
05:43 47.5 °F 48.2 °F 29.5 in SSW 5.8 mph 8.7 mph 96% 0 in
05:44 47.5 °F 48.2 °F 29.5 in SSW 5.6 mph 8.7 mph 96% 0 in
05:47 47.3 °F 48.2 °F 29.5 in WSW 6.5 mph 8.7 mph 96% 0 in
05:50 47.3 °F 48.2 °F 29.5 in WSW 4.9 mph 8.1 mph 96% 0 in
05:53 47.3 °F 48.2 °F 29.5 in WSW 6.3 mph 7.6 mph 96% 0 in
05:56 47.3 °F 48.2 °F 29.5 in SW 5.8 mph 7.4 mph 96% 0 in
05:58 47.3 °F 48.2 °F 29.5 in SSW 3.6 mph 8.7 mph 96% 0 in
06:03 47.3 °F 48.2 °F 29.5 in SSW 7.8 mph 8.7 mph 96% 0 in
06:12 47.3 °F 48.2 °F 29.5 in SW 3.8 mph 7.8 mph 97% 0.01 in
06:17 47.1 °F 46.4 °F 29.5 in SSW 5.8 mph 6.5 mph 97% 0.01 in
06:18 47.1 °F 46.4 °F 29.5 in SW 6.5 mph 6.5 mph 97% 0.01 in
06:23 47.1 °F 48.2 °F 29.5 in SSW 3.1 mph 6.5 mph 98% 0.01 in
06:24 47.1 °F 48.2 °F 29.5 in SW 6 mph 6.5 mph 98% 0.01 in
06:29 47.1 °F 48.2 °F 29.5 in SSW 3.1 mph 6.5 mph 98% 0.02 in
06:34 47.1 °F 48.2 °F 29.5 in SSW 4.7 mph 7.6 mph 98% 0.02 in
06:37 46.9 °F 48.2 °F 29.5 in SSW 6.3 mph 7.6 mph 98% 0.02 in
06:41 46.9 °F 48.2 °F 29.5 in SSW 5.6 mph 6.7 mph 98% 0.02 in
06:47 46.9 °F 48.2 °F 29.5 in SSW 3.6 mph 6.7 mph 98% 0.03 in
06:49 46.9 °F 48.2 °F 29.5 in Calm   6 mph 98% 0.03 in
06:51 46.9 °F 48.2 °F 29.5 in SSW 3.1 mph 6 mph 98% 0.05 in
06:54 46.9 °F 48.2 °F 29.5 in Calm   5.4 mph 98% 0.05 in
06:59 46.9 °F 48.2 °F 29.5 in Calm   3.6 mph 98% 0.05 in
07:00 46.8 °F 46.4 °F 29.5 in Calm   3.6 mph 98% 0.06 in
07:04 46.8 °F 46.4 °F 29.5 in SSW 3.4 mph 3.6 mph 98% 0.06 in
07:09 46.8 °F 46.4 °F 29.5 in Calm   4 mph 98% 0.06 in
07:12 46.8 °F 46.4 °F 29.4 in Calm   4 mph 98% 0.06 in
07:18 46.8 °F 46.4 °F 29.4 in Calm   4.7 mph 98% 0.07 in
07:23 46.8 °F 46.4 °F 29.4 in Calm   4.9 mph 98% 0.07 in
07:26 46.8 °F 46.4 °F 29.4 in SSW 4 mph 5.4 mph 98% 0.09 in
07:30 46.6 °F 46.4 °F 29.4 in SSW 3.6 mph 5.4 mph 98% 0.07 in
07:32 46.6 °F 46.4 °F 29.4 in SSW 3.6 mph 5.4 mph 98% 0.07 in
07:34 46.6 °F 46.4 °F 29.4 in SSW 5.8 mph 6.3 mph 98% 0.07 in
07:36 46.6 °F 46.4 °F 29.4 in SSW 4.9 mph 6.3 mph 98% 0.09 in
07:38 46.6 °F 46.4 °F 29.4 in SSW 4 mph 6.3 mph 98% 0.09 in
07:39 46.6 °F 46.4 °F 29.4 in SSW 3.6 mph 6.3 mph 98% 0.09 in
07:44 46.6 °F 46.4 °F 29.4 in Calm   5.8 mph 98% 0.09 in
07:47 46.6 °F 46.4 °F 29.4 in SSW 4.9 mph 7.4 mph 98% 0.09 in
07:48 46.6 °F 46.4 °F 29.4 in SSW 4.9 mph 7.4 mph 98% 0.09 in
07:51 46.6 °F 46.4 °F 29.4 in South 4 mph 7.4 mph 98% 0.09 in
07:54 46.6 °F 46.4 °F 29.4 in South 5.6 mph 7.4 mph 98% 0.1 in
07:59 46.6 °F 46.4 °F 29.4 in South 0.9 mph 6 mph 98% 0.1 in
08:04 46.4 °F 46.4 °F 29.4 in Calm   6 mph 98% 0.1 in
08:06 46.4 °F 46.4 °F 29.4 in Calm   6 mph 98% 0.1 in
08:11 46.4 °F 46.4 °F 29.4 in SSW 2.9 mph 8.1 mph 98% 0.1 in
08:12 46.4 °F 46.4 °F 29.4 in South 6.3 mph 8.1 mph 98% 0.1 in
08:14 46.4 °F 46.4 °F 29.4 in South 6 mph 8.1 mph 98% 0.1 in
08:18 46.4 °F 46.4 °F 29.4 in SSW 4.3 mph 8.1 mph 98% 0.09 in
08:19 46.4 °F 46.4 °F 29.4 in SSW 4.9 mph 8.1 mph 98% 0.1 in
08:24 46.4 °F 46.4 °F 29.4 in South 5.4 mph 6 mph 98% 0.09 in
08:26 46.4 °F 46.4 °F 29.4 in South 3.8 mph 5.8 mph 98% 0.09 in
08:30 46.4 °F 46.4 °F 29.4 in South 5.8 mph 5.8 mph 98% 0.1 in
08:36 46.4 °F 46.4 °F 29.4 in South 5.8 mph 6.7 mph 98% 0.09 in
08:37 46.4 °F 46.4 °F 29.4 in SSE 6.3 mph 6.7 mph 98% 0.09 in
08:39 46.2 °F 46.4 °F 29.4 in SSE 3.6 mph 6.7 mph 98% 0.1 in
08:42 46.2 °F 46.4 °F 29.4 in South 5.4 mph 7.2 mph 98% 0.09 in
08:45 46.2 °F 46.4 °F 29.4 in SSE 4 mph 7.2 mph 98% 0.09 in
08:50 46.2 °F 46.4 °F 29.4 in South 5.6 mph 7.2 mph 98% 0.07 in
08:51 46.2 °F 46.4 °F 29.4 in South 4 mph 7.2 mph 98% 0.09 in
08:53 46.2 °F 46.4 °F 29.4 in Calm   6.3 mph 98% 0.09 in
08:58 46.2 °F 46.4 °F 29.4 in South 5.4 mph 6.5 mph 98% 0.07 in
09:00 46.2 °F 46.4 °F 29.4 in South 6.3 mph 7.4 mph 98% 0.06 in
09:02 46.2 °F 46.4 °F 29.4 in SSE 3.8 mph 7.4 mph 98% 0.07 in
09:07 46.2 °F 46.4 °F 29.4 in SSE 3.4 mph 7.4 mph 98% 0.07 in
09:10 46.2 °F 46.4 °F 29.4 in SSW 4 mph 7.4 mph 98% 0.06 in
09:14 46.4 °F 46.4 °F 29.4 in South 4.3 mph 8.5 mph 98% 0.06 in
09:17 46.4 °F 46.4 °F 29.4 in South 3.8 mph 8.5 mph 98% 0.07 in
09:22 46.4 °F 46.4 °F 29.4 in South 4 mph 6.3 mph 98% 0.06 in
09:24 46.4 °F 46.4 °F 29.4 in South 0.9 mph 6.3 mph 98% 0.07 in
09:27 46.4 °F 46.4 °F 29.4 in SSW 5.8 mph 7.6 mph 98% 0.06 in
09:30 46.4 °F 46.4 °F 29.4 in South 7.8 mph 7.8 mph 98% 0.06 in
09:33 46.4 °F 46.4 °F 29.4 in SSW 3.6 mph 8.1 mph 98% 0.06 in
09:36 46.4 °F 46.4 °F 29.4 in SSW 4 mph 8.1 mph 98% 0.07 in
09:38 46.6 °F 46.4 °F 29.4 in SSW 5.6 mph 9.6 mph 98% 0.06 in
09:43 46.6 °F 46.4 °F 29.4 in SW 3.4 mph 9.6 mph 98% 0.07 in
09:48 46.6 °F 46.4 °F 29.4 in South 6 mph 6.5 mph 98% 0.07 in
09:51 46.6 °F 46.4 °F 29.4 in South 5.6 mph 9.6 mph 98% 0.07 in
09:54 46.6 °F 46.4 °F 29.4 in WSW 7.2 mph 9.6 mph 98% 0.07 in
09:59 46.8 °F 46.4 °F 29.4 in SSW 7.6 mph 9.6 mph 98% 0.09 in
10:03 46.9 °F 48.2 °F 29.4 in SW 5.8 mph 8.7 mph 98% 0.07 in
10:08 46.9 °F 48.2 °F 29.4 in South 8.5 mph 8.7 mph 98% 0.09 in
10:13 46.9 °F 48.2 °F 29.4 in SSW 3.4 mph 8.7 mph 98% 0.1 in
10:14 47.1 °F 48.2 °F 29.4 in South 1.1 mph 8.7 mph 98% 0.09 in
10:16 47.1 °F 48.2 °F 29.4 in WSW 4 mph 8.7 mph 98% 0.1 in
10:21 47.1 °F 48.2 °F 29.4 in South 7.2 mph 8.7 mph 98% 0.1 in
10:26 47.3 °F 48.2 °F 29.4 in South 8.5 mph 10.7 mph 98% 0.1 in
10:30 47.3 °F 48.2 °F 29.4 in South 4 mph 10.7 mph 98% 0.11 in
10:35 47.3 °F 48.2 °F 29.4 in South 4.3 mph 10.7 mph 98% 0.11 in
10:38 47.5 °F 48.2 °F 29.4 in SSW 5.8 mph 8.7 mph 98% 0.12 in
10:43 47.5 °F 48.2 °F 29.4 in South 7.6 mph 9.6 mph 98% 0.12 in
10:48 47.5 °F 48.2 °F 29.4 in South 5.8 mph 9.6 mph 98% 0.13 in
10:52 47.5 °F 48.2 °F 29.4 in South 7.4 mph 9.6 mph 98% 0.13 in
10:56 47.7 °F 48.2 °F 29.4 in South 4.7 mph 8.5 mph 98% 0.15 in
11:01 47.7 °F 48.2 °F 29.4 in South 4.9 mph 8.1 mph 98% 0.15 in
11:05 47.8 °F 48.2 °F 29.4 in South 5.4 mph 7.2 mph 98% 0.13 in
11:06 47.8 °F 48.2 °F 29.4 in South 7.8 mph 8.5 mph 98% 0.15 in
11:11 47.8 °F 48.2 °F 29.4 in SSW 3.8 mph 8.5 mph 98% 0.13 in
11:16 48 °F 48.2 °F 29.4 in SSW 5.6 mph 8.7 mph 98% 0.13 in
11:17 48 °F 48.2 °F 29.4 in SW 5.4 mph 8.7 mph 98% 0.13 in
11:22 48.2 °F 48.2 °F 29.4 in SSW 6 mph 8.7 mph 98% 0.12 in
11:26 48.4 °F 48.2 °F 29.4 in South 3.6 mph 8.5 mph 98% 0.13 in
11:28 48.6 °F 48.2 °F 29.4 in SSW 4 mph 8.5 mph 98% 0.12 in
11:32 48.7 °F 48.2 °F 29.4 in SW 5.8 mph 8.5 mph 98% 0.12 in
11:36 48.9 °F 48.2 °F 29.4 in WSW 8.5 mph 8.5 mph 98% 0.11 in
11:38 48.9 °F 48.2 °F 29.4 in SW 5.4 mph 9.8 mph 98% 0.11 in
11:43 49.3 °F 50 °F 29.3 in WSW 6.3 mph 9.8 mph 98% 0.1 in
11:46 49.6 °F 50 °F 29.3 in SSW 7.6 mph 9.8 mph 98% 0.09 in
11:51 50.2 °F 50 °F 29.3 in WSW 10.3 mph 10.7 mph 98% 0.09 in
11:54 50.4 °F 50 °F 29.3 in WSW 10.5 mph 13 mph 98% 0.07 in
11:59 51.3 °F 51.8 °F 29.3 in WSW 10.3 mph 15.4 mph 98% 0.06 in
12:01 51.4 °F 51.8 °F 29.3 in WSW 13 mph 15.7 mph 98% 0.06 in
12:06 52.3 °F 51.8 °F 29.3 in West 15.4 mph 21 mph 98% 0.05 in
12:12 53.1 °F 53.6 °F 29.3 in WSW 20.4 mph 23 mph 98% 0.05 in
12:16 53.6 °F 53.6 °F 29.3 in WSW 17 mph 24.2 mph 98% 0.04 in
12:21 54 °F 53.6 °F 29.3 in WSW 16.6 mph 28.4 mph 98% 0.04 in
12:26 54.1 °F 55.4 °F 29.3 in WSW 22.1 mph 28.4 mph 98% 0.03 in
12:27 54.3 °F 55.4 °F 29.3 in WSW 20.6 mph 28.4 mph 98% 0.03 in
12:32 54.3 °F 55.4 °F 29.3 in West 18.8 mph 26.2 mph 98% 0.02 in
12:35 54.5 °F 55.4 °F 29.3 in WSW 15.4 mph 26.2 mph 98% 0.02 in
12:40 54.5 °F 55.4 °F 29.3 in West 26.4 mph 26.4 mph 98% 0.02 in
12:42 54.5 °F 55.4 °F 29.3 in WSW 14.8 mph 26.4 mph 98% 0.02 in
12:48 54.5 °F 55.4 °F 29.3 in WSW 17.7 mph 27.7 mph 98% 0.02 in
12:49 54.5 °F 55.4 °F 29.3 in West 19.7 mph 27.7 mph 98% 0.02 in
12:54 54.7 °F 55.4 °F 29.3 in West 25.3 mph 28.4 mph 98% 0.01 in
12:56 54.7 °F 55.4 °F 29.3 in WSW 17.9 mph 28.4 mph 98% 0.01 in
12:57 54.7 °F 55.4 °F 29.3 in West 27.7 mph 28.4 mph 98% 0.01 in
13:03 54.9 °F 55.4 °F 29.3 in WSW 16.3 mph 27.7 mph 98% 0.01 in
13:08 55 °F 55.4 °F 29.3 in WSW 12.8 mph 25.7 mph 98% 0.01 in
13:09 55 °F 55.4 °F 29.3 in WSW 15.2 mph 25.7 mph 98% 0.01 in
13:14 55 °F 55.4 °F 29.3 in West 13.4 mph 26.4 mph 98% 0.01 in
13:15 55 °F 55.4 °F 29.3 in West 12.5 mph 26.4 mph 98% 0.01 in
13:21 55.2 °F 55.4 °F 29.3 in West 17.9 mph 26.4 mph 98% 0.01 in
13:26 55.2 °F 55.4 °F 29.4 in WSW 15.4 mph 25.5 mph 98% 0.01 in
13:31 55.2 °F 55.4 °F 29.4 in West 22.1 mph 25.1 mph 98% 0 in
13:36 55.4 °F 55.4 °F 29.4 in West 23.7 mph 29.8 mph 98% 0 in
13:38 55.4 °F 55.4 °F 29.4 in WSW 16.6 mph 29.8 mph 98% 0 in
13:39 55.4 °F 55.4 °F 29.4 in West 27.1 mph 30.2 mph 98% 0 in
13:41 55.6 °F 55.4 °F 29.3 in West 24.2 mph 30.2 mph 97% 0 in
13:47 55.6 °F 55.4 °F 29.3 in West 17.2 mph 30.2 mph 96% 0 in
13:48 55.6 °F 55.4 °F 29.3 in West 14.3 mph 28.4 mph 96% 0 in
13:53 55.6 °F 55.4 °F 29.3 in West 22.6 mph 28.4 mph 95% 0 in
13:54 55.6 °F 55.4 °F 29.3 in WSW 23 mph 31.1 mph 95% 0 in
13:58 55.6 °F 53.6 °F 29.3 in West 23.3 mph 31.1 mph 94% 0 in
14:03 55.6 °F 53.6 °F 29.3 in West 23.7 mph 31.1 mph 94% 0 in
14:04 55.6 °F 53.6 °F 29.3 in WSW 13.2 mph 28.6 mph 94% 0 in
14:05 55.6 °F 53.6 °F 29.3 in West 24.4 mph 27.1 mph 94% 0 in
14:10 55.6 °F 53.6 °F 29.3 in WSW 26.4 mph 26.4 mph 93% 0 in
14:14 55.6 °F 53.6 °F 29.3 in WSW 23.9 mph 30.2 mph 93% 0 in
14:17 55.6 °F 53.6 °F 29.3 in WSW 23 mph 30.2 mph 92% 0 in
14:23 55.6 °F 53.6 °F 29.3 in WSW 25.7 mph 30.2 mph 91% 0 in
14:25 55.6 °F 53.6 °F 29.3 in WSW 17.2 mph 28.9 mph 91% 0 in
14:30 55.4 °F 53.6 °F 29.3 in WSW 15.4 mph 32.4 mph 90% 0 in
14:32 55.4 °F 53.6 °F 29.3 in West 26.4 mph 32.4 mph 90% 0 in
14:37 55.2 °F 53.6 °F 29.3 in WSW 25.1 mph 31.8 mph 89% 0 in
14:38 55.2 °F 53.6 °F 29.3 in WSW 24.2 mph 31.8 mph 89% 0 in
14:40 55 °F 53.6 °F 29.3 in WSW 23.7 mph 31.8 mph 89% 0 in
14:41 55 °F 51.8 °F 29.3 in WSW 28 mph 31.8 mph 88% 0 in
14:45 55.2 °F 51.8 °F 29.3 in WSW 17.4 mph 36.5 mph 87% 0 in
14:50 55.2 °F 51.8 °F 29.3 in West 24.2 mph 36.5 mph 87% 0 in
14:51 55.2 °F 51.8 °F 29.3 in WSW 25.1 mph 36.5 mph 87% 0 in
14:56 55.4 °F 51.8 °F 29.3 in West 24.6 mph 32.9 mph 85% 0 in
15:01 55.6 °F 51.8 °F 29.3 in WSW 23.5 mph 36.7 mph 84% 0 in
15:06 55.4 °F 50 °F 29.3 in WSW 25.3 mph 36.7 mph 83% 0 in
15:08 55.4 °F 50 °F 29.3 in West 23.3 mph 35.3 mph 83% 0 in
15:13 55.4 °F 50 °F 29.3 in WSW 27.7 mph 34.4 mph 82% 0 in
15:16 55.4 °F 50 °F 29.3 in West 32.4 mph 34.4 mph 83% 0 in
15:21 55.2 °F 50 °F 29.3 in WSW 24.4 mph 32.4 mph 82% 0 in
15:24 55.2 °F 50 °F 29.3 in WSW 24.6 mph 32.4 mph 82% 0 in
15:26 55.2 °F 50 °F 29.3 in WSW 23.7 mph 32.4 mph 81% 0 in
15:31 55 °F 50 °F 29.3 in WSW 28.6 mph 32.2 mph 82% 0 in
15:36 55 °F 50 °F 29.3 in WSW 26.4 mph 37.8 mph 80% 0 in
15:38 55 °F 50 °F 29.3 in West 29.3 mph 37.8 mph 80% 0 in
15:43 54.7 °F 50 °F 29.3 in WSW 28.9 mph 36.7 mph 80% 0 in
15:48 54.7 °F 48.2 °F 29.3 in WSW 31.8 mph 39.1 mph 76% 0 in
15:49 54.5 °F 48.2 °F 29.3 in WSW 25.9 mph 39.1 mph 75% 0 in
15:54 54.3 °F 48.2 °F 29.3 in West 25.9 mph 39.1 mph 75% 0 in
15:56 54.5 °F 48.2 °F 29.3 in West 32.2 mph 44.1 mph 75% 0 in
16:00 54.3 °F 48.2 °F 29.3 in West 22.8 mph 44.1 mph 75% 0 in
16:06 54.3 °F 46.4 °F 29.3 in West 28 mph 44.1 mph 74% 0 in
16:12 54.1 °F 48.2 °F 29.3 in WSW 19.7 mph 35.8 mph 75% 0 in
16:17 54.1 °F 48.2 °F 29.3 in West 19.9 mph 35.8 mph 75% 0 in
16:20 54.1 °F 48.2 °F 29.3 in West 28.4 mph 35.8 mph 75% 0 in
16:25 54 °F 48.2 °F 29.3 in West 26.4 mph 38.3 mph 77% 0 in
16:26 54 °F 48.2 °F 29.3 in West 22.1 mph 38.3 mph 77% 0 in
16:31 54 °F 46.4 °F 29.3 in WSW 23.5 mph 38.3 mph 76% 0 in
16:34 53.8 °F 46.4 °F 29.3 in WSW 26.6 mph 37.1 mph 76% 0 in
16:39 53.6 °F 46.4 °F 29.3 in WSW 30 mph 37.1 mph 74% 0 in
16:44 53.4 °F 46.4 °F 29.3 in West 20.6 mph 37.1 mph 75% 0 in
16:46 53.2 °F 44.6 °F 29.3 in West 36.7 mph 36.7 mph 74% 0 in
16:51 53.2 °F 44.6 °F 29.3 in West 26.6 mph 36.7 mph 74% 0 in
16:55 53.1 °F 44.6 °F 29.3 in WSW 37.4 mph 40.3 mph 74% 0 in
16:56 53.1 °F 44.6 °F 29.3 in West 22.6 mph 40.3 mph 73% 0 in
16:59 53.1 °F 44.6 °F 29.3 in West 25.3 mph 40.3 mph 74% 0 in
17:04 52.7 °F 44.6 °F 29.3 in West 22.8 mph 40.3 mph 74% 0 in
17:05 52.7 °F 44.6 °F 29.3 in West 23.3 mph 37.4 mph 74% 0 in
17:11 52.7 °F 44.6 °F 29.3 in WNW 26.2 mph 39.1 mph 72% 0 in
17:16 52.5 °F 44.6 °F 29.3 in West 23.3 mph 39.1 mph 73% 0 in
17:18 52.5 °F 44.6 °F 29.3 in WNW 20.4 mph 34.4 mph 73% 0 in
17:21 52.5 °F 44.6 °F 29.3 in West 21.9 mph 34.4 mph 73% 0 in
17:24 52.3 °F 44.6 °F 29.3 in West 32.4 mph 34.7 mph 72% 0 in
17:27 52.3 °F 44.6 °F 29.3 in WSW 25.3 mph 39.8 mph 72% 0 in
17:32 52.2 °F 44.6 °F 29.3 in WSW 20.6 mph 39.8 mph 73% 0 in
17:35 52 °F 42.8 °F 29.3 in West 24.2 mph 38.9 mph 73% 0 in
17:36 52 °F 42.8 °F 29.3 in WSW 26.4 mph 38.9 mph 73% 0 in
17:41 51.8 °F 44.6 °F 29.3 in WSW 27.1 mph 30.9 mph 74% 0 in
17:42 51.6 °F 44.6 °F 29.3 in West 25.7 mph 30.9 mph 74% 0 in
17:45 51.4 °F 42.8 °F 29.3 in West 18.6 mph 29.3 mph 74% 0 in
17:50 51.3 °F 42.8 °F 29.3 in WSW 28 mph 30.4 mph 74% 0 in
17:53 51.3 °F 42.8 °F 29.3 in WSW 28.6 mph 33.8 mph 74% 0 in
17:58 51.1 °F 42.8 °F 29.3 in WSW 31.8 mph 33.8 mph 74% 0 in
17:59 51.1 °F 42.8 °F 29.3 in West 22.6 mph 33.8 mph 74% 0 in
18:04 50.9 °F 42.8 °F 29.3 in WSW 29.3 mph 33.6 mph 73% 0 in
18:06 50.9 °F 42.8 °F 29.3 in WSW 22.6 mph 33.6 mph 73% 0 in
18:11 50.5 °F 42.8 °F 29.3 in WSW 24.2 mph 30.6 mph 73% 0 in
18:16 50.4 °F 42.8 °F 29.3 in West 28.4 mph 34.2 mph 73% 0 in
18:19 50.5 °F 42.8 °F 29.3 in SW 22.4 mph 34.2 mph 72% 0 in
18:20 50.4 °F 42.8 °F 29.3 in West 22.6 mph 34.2 mph 72% 0 in
18:21 50.4 °F 42.8 °F 29.3 in WSW 18.8 mph 34.2 mph 72% 0 in
18:26 50.4 °F 42.8 °F 29.4 in WSW 25.7 mph 35.8 mph 72% 0 in
18:28 50.2 °F 42.8 °F 29.4 in West 29.8 mph 35.8 mph 72% 0 in
18:30 50.4 °F 42.8 °F 29.4 in WSW 19.2 mph 35.8 mph 72% 0 in
18:31 50.2 °F 42.8 °F 29.4 in WSW 28.4 mph 35.8 mph 72% 0 in
18:37 50.2 °F 42.8 °F 29.4 in West 25.9 mph 34.4 mph 72% 0 in
18:38 50.2 °F 42.8 °F 29.4 in WSW 30.9 mph 34.4 mph 72% 0 in
18:43 50.2 °F 42.8 °F 29.4 in West 25.3 mph 30.9 mph 72% 0 in
18:45 50.2 °F 42.8 °F 29.4 in West 32.4 mph 32.4 mph 72% 0 in
18:46 50.2 °F 42.8 °F 29.4 in West 14.5 mph 32.4 mph 72% 0 in
18:51 50.2 °F 42.8 °F 29.4 in WSW 27.3 mph 32.4 mph 73% 0 in
18:56 50.2 °F 42.8 °F 29.4 in West 22.1 mph 32.2 mph 73% 0 in
18:59 50 °F 42.8 °F 29.4 in WSW 23.3 mph 29.3 mph 74% 0 in
19:04 50.2 °F 42.8 °F 29.4 in WSW 25.1 mph 33.1 mph 74% 0 in
19:15 50 °F 42.8 °F 29.4 in West 23.3 mph 25.9 mph 74% 0 in
19:20 49.8 °F 42.8 °F 29.4 in West 19.9 mph 25.9 mph 75% 0 in
19:24 49.8 °F 42.8 °F 29.4 in West 15.9 mph 27.1 mph 75% 0 in
19:28 49.6 °F 42.8 °F 29.4 in West 19.2 mph 27.1 mph 75% 0 in
19:30 49.6 °F 42.8 °F 29.4 in West 26.4 mph 27.5 mph 75% 0 in
19:37 49.5 °F 42.8 °F 29.4 in West 10.7 mph 27.5 mph 76% 0 in
19:42 49.5 °F 42.8 °F 29.4 in West 23.7 mph 27.3 mph 75% 0 in
19:45 49.5 °F 42.8 °F 29.4 in WSW 14.8 mph 27.3 mph 76% 0 in
19:50 49.3 °F 42.8 °F 29.4 in WSW 20.6 mph 27.3 mph 75% 0 in
19:56 49.5 °F 42.8 °F 29.4 in WSW 14.1 mph 26.6 mph 75% 0 in
19:57 49.3 °F 42.8 °F 29.4 in West 22.1 mph 26.6 mph 75% 0 in
20:02 49.1 °F 42.8 °F 29.4 in WSW 10.5 mph 26.6 mph 75% 0 in
20:07 48.9 °F 42.8 °F 29.4 in WSW 22.8 mph 28 mph 75% 0 in
20:11 48.9 °F 41 °F 29.4 in West 11.9 mph 28 mph 73% 0 in
20:16 48.7 °F 41 °F 29.4 in WSW 12.8 mph 23.7 mph 73% 0 in
20:20 48.7 °F 41 °F 29.4 in WSW 15.9 mph 23.7 mph 74% 0 in
20:21 48.6 °F 41 °F 29.4 in West 14.5 mph 23.7 mph 74% 0 in
20:26 48.7 °F 41 °F 29.4 in West 12.5 mph 23.7 mph 74% 0 in
20:30 48.6 °F 41 °F 29.4 in West 17 mph 22.6 mph 73% 0 in
20:31 48.6 °F 41 °F 29.4 in West 10.5 mph 22.6 mph 73% 0 in
20:36 48.4 °F 41 °F 29.4 in WSW 16.3 mph 20.6 mph 73% 0 in
20:41 48 °F 41 °F 29.4 in WSW 12.3 mph 20.6 mph 74% 0 in
20:46 48 °F 41 °F 29.4 in WSW 15.2 mph 20.6 mph 74% 0 in
20:50 48 °F 41 °F 29.4 in WSW 13.4 mph 25.1 mph 74% 0 in
20:56 48 °F 41 °F 29.4 in WSW 17.7 mph 25.1 mph 74% 0 in
20:57 48 °F 41 °F 29.4 in West 12.5 mph 23.9 mph 74% 0 in
21:03 48 °F 41 °F 29.4 in WSW 15.2 mph 19.9 mph 74% 0 in
21:06 47.8 °F 41 °F 29.4 in West 10.1 mph 19.9 mph 74% 0 in
21:12 47.8 °F 41 °F 29.4 in West 12.5 mph 23.9 mph 74% 0 in
21:13 47.8 °F 41 °F 29.4 in West 14.1 mph 23.9 mph 74% 0 in
21:17 47.8 °F 41 °F 29.4 in West 11 mph 24.6 mph 74% 0 in
21:20 47.7 °F 41 °F 29.4 in West 11 mph 24.6 mph 74% 0 in
21:25 47.5 °F 41 °F 29.4 in West 11.2 mph 17 mph 74% 0 in
21:30 47.3 °F 41 °F 29.4 in West 10.1 mph 17 mph 75% 0 in
21:44 32 °F 41 °F 0 in Calm     0% 0 in
21:49 47.3 °F 41 °F 29.4 in West 13.2 mph 17.2 mph 76% 0 in
21:51 47.3 °F 41 °F 29.4 in West 19.7 mph 19.7 mph 76% 0 in
21:53 47.3 °F 41 °F 29.4 in West 16.6 mph 19.7 mph 77% 0 in
21:56 47.3 °F 41 °F 29.4 in WSW 12.1 mph 19.7 mph 77% 0 in
22:01 47.3 °F 41 °F 29.4 in West 10.3 mph 22.4 mph 78% 0 in
22:04 47.3 °F 42.8 °F 29.4 in WSW 10.7 mph 22.4 mph 79% 0 in
22:08 47.3 °F 42.8 °F 29.4 in WSW 13.6 mph 22.4 mph 79% 0 in
22:09 47.3 °F 42.8 °F 29.4 in West 15.7 mph 22.4 mph 79% 0 in
22:15 47.3 °F 42.8 °F 29.4 in West 16.8 mph 20.1 mph 79% 0 in
22:18 47.3 °F 42.8 °F 29.4 in West 12.5 mph 20.1 mph 79% 0 in
22:19 47.3 °F 42.8 °F 29.4 in WSW 12.3 mph 19.9 mph 79% 0 in
22:28 47.3 °F 42.8 °F 29.4 in West 11 mph 19.5 mph 79% 0 in
22:32 47.3 °F 42.8 °F 29.4 in West 16.6 mph 19.5 mph 79% 0 in
22:34 47.3 °F 41 °F 29.4 in West 15.4 mph 19.5 mph 78% 0 in
22:41 47.5 °F 41 °F 29.4 in West 14.3 mph 17.9 mph 78% 0 in
22:42 47.5 °F 41 °F 29.4 in WSW 15.4 mph 17.9 mph 78% 0 in
22:44 47.5 °F 41 °F 29.4 in WSW 13 mph 17 mph 78% 0 in
22:46 47.5 °F 41 °F 29.4 in WSW 10.3 mph 17 mph 78% 0 in
22:50 47.5 °F 41 °F 29.4 in WSW 13.2 mph 17 mph 78% 0 in
22:52 47.5 °F 41 °F 29.4 in WSW 11.4 mph 16.3 mph 78% 0 in
22:54 47.5 °F 41 °F 29.4 in West 5.6 mph 16.3 mph 78% 0 in
22:55 47.5 °F 41 °F 29.4 in WSW 7.8 mph 16.3 mph 78% 0 in
23:00 47.3 °F 42.8 °F 29.4 in WSW 7.8 mph 14.1 mph 79% 0 in
23:05 47.1 °F 41 °F 29.4 in WSW 8.7 mph 13.2 mph 79% 0 in
23:10 46.9 °F 42.8 °F 29.4 in WSW 9.8 mph 13 mph 80% 0 in
23:14 46.8 °F 41 °F 29.4 in West 6 mph 13 mph 81% 0 in
23:19 46.6 °F 41 °F 29.4 in WSW 7.4 mph 12.3 mph 81% 0 in
23:24 46.6 °F 42.8 °F 29.4 in WSW 7.6 mph 11 mph 82% 0 in
23:29 46.8 °F 42.8 °F 29.4 in WSW 8.7 mph 11.4 mph 83% 0 in
23:34 46.9 °F 42.8 °F 29.4 in WSW 8.1 mph 13.2 mph 83% 0 in
23:35 46.9 °F 42.8 °F 29.4 in SW 8.7 mph 13.2 mph 83% 0 in
23:40 46.9 °F 42.8 °F 29.4 in SSW 8.5 mph 13 mph 83% 0 in
23:45 47.1 °F 42.8 °F 29.4 in SSW 7.4 mph 13 mph 82% 0 in
23:50 47.1 °F 42.8 °F 29.4 in SW 8.7 mph 12.1 mph 82% 0 in
23:53 47.3 °F 42.8 °F 29.4 in SW 8.1 mph 12.1 mph 83% 0 in
23:58 47.3 °F 42.8 °F 29.4 in WSW 8.7 mph 11 mph 83% 0 in
Données Historique de Météo Turbie

Mise a jour : 20/05/2018 19:30:13
Généré par Cumulus 1.9.4 (1099)